| time (UTC) | temp F | wind direction | speed knots | gust knots | rain 1hr in | rain 24hr in | rain mn in | humidity % | barometer mb |
| 20260505041532 | 68 | 291 | 1.7 | 1.7 | 0.00 | 0.00 | 0.00 | 59 | 1009.8 |
| 20260505041029 | 68 | 303 | 0.0 | 0.9 | 0.00 | 0.00 | 0.00 | 58 | 1009.9 |
| 20260505040527 | 68 | 51 | 1.7 | 4.3 | 0.00 | 0.00 | 0.00 | 58 | 1009.9 |
| 20260505040024 | 68 | 296 | 2.6 | 2.6 | 0.00 | 0.00 | 0.00 | 58 | 1009.7 |
| 20260505035520 | 68 | 341 | 3.5 | 4.3 | 0.00 | 0.00 | 0.00 | 57 | 1009.6 |
| 20260505035016 | 68 | 288 | 3.5 | 5.2 | 0.00 | 0.00 | 0.00 | 58 | 1009.7 |
| 20260505034513 | 68 | 302 | 4.3 | 5.2 | 0.00 | 0.00 | 0.00 | 59 | 1009.6 |
| 20260505034010 | 68 | 353 | 3.5 | 6.1 | 0.00 | 0.00 | 0.00 | 58 | 1009.9 |
| 20260505033507 | 68 | 287 | 0.9 | 1.7 | 0.00 | 0.00 | 0.00 | 60 | 1009.6 |
| 20260505033005 | 68 | 29 | 0.9 | 1.7 | 0.00 | 0.00 | 0.00 | 59 | 1009.5 |
| 20260505032502 | 68 | 287 | 5.2 | 7.0 | 0.00 | 0.00 | 0.00 | 59 | 1009.4 |
| 20260505031959 | 68 | 287 | 3.5 | 4.3 | 0.00 | 0.00 | 0.00 | 58 | 1009.5 |
| 20260505031455 | 68 | 323 | 0.0 | 0.9 | 0.00 | 0.00 | 0.00 | 59 | 1009.5 |
| 20260505030952 | 68 | 287 | 0.9 | 1.7 | 0.00 | 0.00 | 0.00 | 59 | 1009.5 |
| 20260505030449 | 68 | 358 | 0.0 | 0.9 | 0.00 | 0.00 | 0.00 | 59 | 1009.6 |
| 20260505025944 | 68 | 294 | 0.9 | 1.7 | 0.00 | 0.00 | 0.00 | 60 | 1009.3 |
| 20260505025441 | 68 | 295 | 0.9 | 0.9 | 0.00 | 0.00 | 0.00 | 60 | 1009.4 |
| 20260505024940 | 68 | 296 | 0.0 | 0.0 | 0.00 | 0.00 | 0.00 | 60 | 1009.5 |
| 20260505024437 | 68 | 296 | 1.7 | 1.7 | 0.00 | 0.00 | 0.00 | 59 | 1009.5 |
| 20260505023934 | 68 | 299 | 2.6 | 2.6 | 0.00 | 0.00 | 0.00 | 59 | 1009.5 |
| 20260505023431 | 68 | 302 | 0.9 | 1.7 | 0.00 | 0.00 | 0.00 | 61 | 1009.4 |
| 20260505022928 | 68 | 316 | 1.7 | 2.6 | 0.00 | 0.00 | 0.00 | 61 | 1009.5 |
| 20260505022426 | 68 | 319 | 2.6 | 4.3 | 0.00 | 0.00 | 0.00 | 60 | 1009.5 |
| 20260505021923 | 68 | 323 | 1.7 | 1.7 | 0.00 | 0.00 | 0.00 | 61 | 1009.4 |
| 20260505021419 | 68 | 323 | 0.9 | 0.9 | 0.00 | 0.00 | 0.00 | 61 | 1009.5 |
| 20260505020915 | 68 | 324 | 0.0 | 0.0 | 0.00 | 0.00 | 0.00 | 62 | 1009.5 |
| 20260505020410 | 67 | 328 | 0.0 | 0.9 | 0.00 | 0.00 | 0.00 | 63 | 1009.3 |
| 20260505015908 | 65 | 328 | 0.9 | 0.9 | 0.00 | 0.00 | 0.00 | 66 | 1009.3 |
| 20260505015405 | 66 | 328 | 0.0 | 0.0 | 0.00 | 0.00 | 0.00 | 67 | 1009.4 |
| 20260505014902 | 66 | 328 | 0.0 | 0.0 | 0.00 | 0.00 | 0.00 | 65 | 1009.4 |
| 20260505014359 | 67 | 328 | 0.0 | 0.0 | 0.00 | 0.00 | 0.00 | 64 | 1009.1 |
| 20260505013855 | 68 | 328 | 0.0 | 0.0 | 0.00 | 0.00 | 0.00 | 63 | 1009.3 |
| 20260505013352 | 69 | 328 | 0.0 | 0.9 | 0.00 | 0.00 | 0.00 | 61 | 1009.2 |
| 20260505012851 | 69 | 328 | 0.9 | 0.9 | 0.00 | 0.00 | 0.00 | 60 | 1009.2 |
| 20260505012349 | 68 | 328 | 0.0 | 0.0 | 0.00 | 0.00 | 0.00 | 61 | 1009.4 |
| 20260505011844 | 66 | 330 | 0.9 | 0.9 | 0.00 | 0.00 | 0.00 | 66 | 1009.2 |
| 20260505011341 | 67 | 330 | 0.0 | 0.0 | 0.00 | 0.00 | 0.00 | 68 | 1009.0 |
| 20260505010837 | 68 | 330 | 0.0 | 0.0 | 0.00 | 0.00 | 0.00 | 65 | 1009.2 |
| 20260505010333 | 68 | 330 | 0.0 | 0.0 | 0.00 | 0.00 | 0.00 | 60 | 1009.0 |
| 20260505005830 | 69 | 330 | 0.0 | 0.0 | 0.00 | 0.00 | 0.00 | 59 | 1009.3 |
| 20260505005327 | 70 | 330 | 0.0 | 0.0 | 0.00 | 0.00 | 0.00 | 57 | 1009.2 |
| 20260505004825 | 71 | 330 | 0.0 | 0.0 | 0.00 | 0.00 | 0.00 | 56 | 1009.0 |
| 20260505004320 | 72 | 330 | 0.9 | 0.9 | 0.00 | 0.00 | 0.00 | 55 | 1009.2 |
| 20260505003818 | 72 | 330 | 0.9 | 1.7 | 0.00 | 0.00 | 0.00 | 53 | 1009.5 |
| 20260505003315 | 72 | 286 | 1.7 | 1.7 | 0.00 | 0.00 | 0.00 | 54 | 1009.1 |
| 20260505002811 | 73 | 292 | 0.9 | 0.9 | 0.00 | 0.00 | 0.00 | 54 | 1009.2 |
| 20260505002308 | 71 | 29 | 0.0 | 0.0 | 0.00 | 0.00 | 0.00 | 56 | 1009.3 |
| 20260505001807 | 72 | 290 | 0.0 | 0.0 | 0.00 | 0.00 | 0.00 | 55 | 1009.1 |
| 20260505001303 | 72 | 290 | 0.0 | 0.0 | 0.00 | 0.00 | 0.00 | 55 | 1009.3 |
| 20260505000800 | 72 | 290 | 0.0 | 0.0 | 0.00 | 0.00 | 0.00 | 53 | 1009.0 |
| 20260505000258 | 73 | 290 | 0.9 | 0.9 | 0.00 | 0.00 | 0.00 | 53 | 1009.0 |
| 20260504235754 | 74 | 289 | 0.0 | 0.0 | 0.00 | 0.00 | 0.00 | 52 | 1008.9 |
| 20260504235250 | 74 | 290 | 0.0 | 0.0 | 0.00 | 0.00 | 0.00 | 51 | 1008.9 |
| 20260504234748 | 74 | 290 | 1.7 | 1.7 | 0.00 | 0.00 | 0.00 | 49 | 1009.1 |
| 20260504234245 | 75 | 286 | 2.6 | 2.6 | 0.00 | 0.00 | 0.00 | 49 | 1009.2 |
| 20260504233742 | 75 | 291 | 2.6 | 2.6 | 0.00 | 0.00 | 0.00 | 48 | 1009.3 |
| 20260504233237 | 75 | 295 | 2.6 | 2.6 | 0.00 | 0.00 | 0.00 | 48 | 1009.3 |
| 20260504232735 | 75 | 286 | 3.5 | 5.2 | 0.00 | 0.00 | 0.00 | 48 | 1009.4 |
| 20260504232231 | 75 | 286 | 4.3 | 5.2 | 0.00 | 0.00 | 0.00 | 48 | 1009.4 |
| 20260504231728 | 75 | 327 | 1.7 | 2.6 | 0.00 | 0.00 | 0.00 | 47 | 1009.3 |
| 20260504231225 | 76 | 286 | 5.2 | 7.0 | 0.00 | 0.00 | 0.00 | 46 | 1009.2 |
| 20260504230721 | 76 | 22 | 4.3 | 5.2 | 0.00 | 0.00 | 0.00 | 46 | 1009.3 |
| 20260504230220 | 77 | 286 | 4.3 | 6.1 | 0.00 | 0.00 | 0.00 | 45 | 1009.0 |
| 20260504225718 | 77 | 330 | 0.9 | 0.9 | 0.00 | 0.00 | 0.00 | 46 | 1009.3 |
| 20260504225214 | 77 | 286 | 2.6 | 4.3 | 0.00 | 0.00 | 0.00 | 47 | 1009.0 |
| 20260504224711 | 77 | 290 | 1.7 | 1.7 | 0.00 | 0.00 | 0.00 | 48 | 1009.0 |
| 20260504224209 | 77 | 286 | 2.6 | 2.6 | 0.00 | 0.00 | 0.00 | 47 | 1009.1 |
| 20260504223705 | 78 | 286 | 1.7 | 2.6 | 0.00 | 0.00 | 0.00 | 47 | 1009.2 |
| 20260504223200 | 78 | 286 | 3.5 | 6.1 | 0.00 | 0.00 | 0.00 | 45 | 1009.2 |
| 20260504222658 | 78 | 304 | 4.3 | 5.2 | 0.00 | 0.00 | 0.00 | 47 | 1009.1 |
| 20260504222154 | 78 | 286 | 3.5 | 4.3 | 0.00 | 0.00 | 0.00 | 46 | 1009.4 |
| 20260504221652 | 78 | 286 | 3.5 | 4.3 | 0.00 | 0.00 | 0.00 | 47 | 1009.4 |
| 20260504221149 | 77 | 18 | 4.3 | 7.0 | 0.00 | 0.00 | 0.00 | 48 | 1009.3 |
| 20260504220645 | 77 | 286 | 1.7 | 2.6 | 0.00 | 0.00 | 0.00 | 50 | 1009.5 |
| 20260504220143 | 77 | 286 | 2.6 | 4.3 | 0.00 | 0.00 | 0.00 | 48 | 1009.4 |
| 20260504215639 | 78 | 286 | 3.5 | 4.3 | 0.00 | 0.00 | 0.00 | 47 | 1009.3 |
| 20260504215136 | 77 | 286 | 1.7 | 2.6 | 0.00 | 0.00 | 0.00 | 46 | 1009.4 |
| 20260504214632 | 77 | 1 | 2.6 | 4.3 | 0.00 | 0.00 | 0.00 | 48 | 1009.6 |
| 20260504214128 | 77 | 316 | 2.6 | 5.2 | 0.00 | 0.00 | 0.00 | 47 | 1009.6 |
| 20260504213625 | 76 | 333 | 3.5 | 5.2 | 0.00 | 0.00 | 0.00 | 47 | 1009.5 |
| 20260504213122 | 77 | 291 | 4.3 | 5.2 | 0.00 | 0.00 | 0.00 | 47 | 1009.5 |
| 20260504212618 | 78 | 286 | 6.1 | 7.0 | 0.00 | 0.00 | 0.00 | 48 | 1009.5 |
| 20260504212115 | 79 | 316 | 5.2 | 7.0 | 0.00 | 0.00 | 0.00 | 48 | 1009.5 |
| 20260504211612 | 78 | 287 | 3.5 | 5.2 | 0.00 | 0.00 | 0.00 | 48 | 1009.7 |
| 20260504211109 | 78 | 286 | 2.6 | 4.3 | 0.00 | 0.00 | 0.00 | 49 | 1009.8 |
| 20260504210607 | 78 | 354 | 2.6 | 2.6 | 0.00 | 0.00 | 0.00 | 52 | 1009.7 |
| 20260504205601 | 77 | 288 | 4.3 | 5.2 | 0.00 | 0.00 | 0.00 | 54 | 1010.0 |
| 20260504205058 | 76 | 286 | 0.9 | 1.7 | 0.00 | 0.00 | 0.00 | 54 | 1010.0 |
| 20260504204556 | 76 | 305 | 1.7 | 2.6 | 0.00 | 0.00 | 0.00 | 54 | 1010.2 |
| 20260504204055 | 77 | 24 | 1.7 | 2.6 | 0.00 | 0.00 | 0.00 | 54 | 1010.1 |
| 20260504203553 | 77 | 304 | 2.6 | 2.6 | 0.00 | 0.00 | 0.00 | 53 | 1010.2 |
| 20260504203050 | 77 | 291 | 6.1 | 7.8 | 0.00 | 0.00 | 0.00 | 53 | 1010.4 |
| 20260504202545 | 76 | 329 | 2.6 | 2.6 | 0.00 | 0.00 | 0.00 | 55 | 1010.3 |
| 20260504202042 | 76 | 311 | 5.2 | 7.0 | 0.00 | 0.00 | 0.00 | 55 | 1010.3 |
| 20260504201539 | 75 | 296 | 6.1 | 7.8 | 0.00 | 0.00 | 0.00 | 58 | 1010.5 |
| 20260504201037 | 75 | 294 | 5.2 | 7.0 | 0.00 | 0.00 | 0.00 | 55 | 1010.4 |
| 20260504200533 | 74 | 349 | 2.6 | 6.1 | 0.00 | 0.00 | 0.00 | 56 | 1010.2 |
| 20260504200030 | 74 | 315 | 1.7 | 1.7 | 0.00 | 0.00 | 0.00 | 57 | 1010.6 |
| 20260504195526 | 74 | 331 | 2.6 | 2.6 | 0.00 | 0.00 | 0.00 | 55 | 1010.5 |
| 20260504195023 | 74 | 8 | 3.5 | 6.1 | 0.00 | 0.00 | 0.00 | 56 | 1010.6 |
| 20260504194519 | 74 | 297 | 6.1 | 7.0 | 0.00 | 0.00 | 0.00 | 55 | 1010.6 |
| 20260504194015 | 73 | 286 | 3.5 | 4.3 | 0.00 | 0.00 | 0.00 | 56 | 1010.6 |
| 20260504193512 | 72 | 295 | 6.1 | 7.8 | 0.00 | 0.00 | 0.00 | 57 | 1010.6 |
| 20260504193011 | 73 | 319 | 3.5 | 5.2 | 0.00 | 0.00 | 0.00 | 58 | 1010.8 |
| 20260504192509 | 72 | 286 | 6.1 | 8.7 | 0.00 | 0.00 | 0.00 | 58 | 1010.7 |
| 20260504192007 | 73 | 286 | 5.2 | 7.8 | 0.00 | 0.00 | 0.00 | 60 | 1010.9 |
| 20260504191504 | 73 | 293 | 2.6 | 4.3 | 0.00 | 0.00 | 0.00 | 59 | 1010.7 |
| 20260504190959 | 71 | 295 | 5.2 | 6.1 | 0.00 | 0.00 | 0.00 | 58 | 1011.1 |
| 20260504190455 | 71 | 310 | 4.3 | 6.1 | 0.00 | 0.00 | 0.00 | 60 | 1010.9 |
| 20260504185952 | 70 | 18 | 3.5 | 5.2 | 0.00 | 0.00 | 0.00 | 58 | 1011.1 |
| 20260504185449 | 70 | 34 | 4.3 | 6.1 | 0.00 | 0.00 | 0.00 | 58 | 1011.1 |
| 20260504184945 | 68 | 297 | 4.3 | 6.1 | 0.00 | 0.00 | 0.00 | 61 | 1011.0 |
| 20260504184441 | 68 | 287 | 3.5 | 6.1 | 0.00 | 0.00 | 0.00 | 63 | 1011.2 |
| 20260504183937 | 67 | 289 | 1.7 | 1.7 | 0.00 | 0.00 | 0.00 | 66 | 1011.2 |
| 20260504183434 | 66 | 294 | 2.6 | 2.6 | 0.00 | 0.00 | 0.00 | 67 | 1011.7 |
| 20260504182933 | 66 | 291 | 4.3 | 6.1 | 0.00 | 0.00 | 0.00 | 66 | 1011.4 |
| 20260504182429 | 66 | 292 | 2.6 | 2.6 | 0.00 | 0.00 | 0.00 | 69 | 1011.8 |
| 20260504181926 | 66 | 287 | 0.9 | 1.7 | 0.00 | 0.00 | 0.00 | 65 | 1011.3 |
| 20260504181423 | 67 | 287 | 3.5 | 4.3 | 0.00 | 0.00 | 0.00 | 61 | 1012.0 |
| 20260504180922 | 67 | 287 | 2.6 | 2.6 | 0.00 | 0.00 | 0.00 | 61 | 1012.8 |
| 20260504180420 | 68 | 287 | 5.2 | 7.0 | 0.00 | 0.00 | 0.00 | 58 | 1012.8 |
| 20260504175918 | 68 | 287 | 3.5 | 4.3 | 0.00 | 0.00 | 0.00 | 58 | 1012.7 |
| 20260504175415 | 68 | 286 | 3.5 | 6.1 | 0.00 | 0.00 | 0.00 | 59 | 1012.4 |
| 20260504174913 | 69 | 286 | 4.3 | 6.1 | 0.00 | 0.00 | 0.00 | 57 | 1012.4 |
| 20260504174410 | 70 | 351 | 2.6 | 4.3 | 0.00 | 0.00 | 0.00 | 57 | 1011.9 |
| 20260504173907 | 71 | 292 | 1.7 | 1.7 | 0.00 | 0.00 | 0.00 | 58 | 1012.1 |
| 20260504173403 | 71 | 287 | 6.1 | 7.8 | 0.00 | 0.00 | 0.00 | 55 | 1011.8 |
| 20260504172901 | 70 | 301 | 5.2 | 7.0 | 0.00 | 0.00 | 0.00 | 57 | 1011.5 |
| 20260504172357 | 70 | 286 | 0.9 | 2.6 | 0.00 | 0.00 | 0.00 | 59 | 1011.7 |
| 20260504171853 | 69 | 304 | 2.6 | 2.6 | 0.00 | 0.00 | 0.00 | 57 | 1011.8 |
| 20260504171351 | 70 | 286 | 3.5 | 5.2 | 0.00 | 0.00 | 0.00 | 59 | 1011.7 |
| 20260504170848 | 69 | 293 | 4.3 | 7.0 | 0.00 | 0.00 | 0.00 | 59 | 1011.8 |
| 20260504170344 | 68 | 7 | 5.2 | 6.1 | 0.00 | 0.00 | 0.00 | 60 | 1012.0 |
| 20260504160303 | 66 | 329 | 1.7 | 4.3 | 0.00 | 0.00 | 0.00 | 64 | 1012.6 |
| 20260504150728 | 62 | 287 | 3.5 | 6.1 | 0.00 | 0.00 | 0.00 | 71 | 1013.5 |
| 20260504150225 | 61 | 287 | 0.0 | 0.9 | 0.00 | 0.00 | 0.00 | 72 | 1013.7 |
| 20260504141154 | 58 | 331 | 4.3 | 6.1 | 0.00 | 0.00 | 0.00 | 75 | 1014.0 |
| 20260504140651 | 58 | 287 | 5.2 | 6.1 | 0.00 | 0.00 | 0.00 | 76 | 1014.0 |
| 20260504140146 | 58 | 300 | 4.3 | 6.1 | 0.00 | 0.00 | 0.00 | 76 | 1014.2 |
| 20260504130614 | 55 | 287 | 6.1 | 8.7 | 0.00 | 0.00 | 0.00 | 76 | 1014.4 |
| 20260504130111 | 55 | 290 | 4.3 | 7.0 | 0.00 | 0.00 | 0.00 | 75 | 1014.5 |
| 20260504110503 | 51 | 301 | 0.9 | 1.7 | 0.00 | 0.00 | 0.00 | 71 | 1014.0 |
| 20260504100419 | 49 | 41 | 0.0 | 0.9 | 0.00 | 0.00 | 0.00 | 73 | 1013.8 |
| 20260504081812 | 47 | 38 | 0.0 | 0.0 | 0.00 | 0.00 | 0.00 | 79 | 1014.5 |
| 20260504081309 | 46 | 38 | 0.0 | 0.0 | 0.00 | 0.00 | 0.00 | 80 | 1014.1 |
| 20260504080805 | 46 | 38 | 0.0 | 0.0 | 0.00 | 0.00 | 0.00 | 80 | 1014.2 |
| 20260504080301 | 46 | 38 | 0.0 | 0.0 | 0.00 | 0.00 | 0.00 | 80 | 1014.2 |
| 20260504070229 | 48 | 38 | 0.0 | 0.0 | 0.00 | 0.00 | 0.00 | 77 | 1014.4 |
| 20260504060149 | 52 | 343 | 0.0 | 0.9 | 0.00 | 0.00 | 0.00 | 63 | 1015.2 |
| 20260504050618 | 55 | 309 | 0.9 | 0.9 | 0.00 | 0.00 | 0.00 | 55 | 1015.8 |
| 20260504050115 | 55 | 302 | 0.9 | 0.9 | 0.00 | 0.00 | 0.00 | 57 | 1015.8 |
| 20260504045612 | 55 | 339 | 0.0 | 0.0 | 0.00 | 0.00 | 0.00 | 59 | 1015.8 |
| 20260504045107 | 55 | 288 | 1.7 | 2.6 | 0.00 | 0.00 | 0.00 | 58 | 1015.1 |
| 20260504044605 | 55 | 299 | 3.5 | 4.3 | 0.00 | 0.00 | 0.00 | 59 | 1015.2 |
| 20260504044101 | 54 | 287 | 3.5 | 4.3 | 0.00 | 0.00 | 0.00 | 60 | 1015.4 |
| 20260504043559 | 53 | 290 | 3.5 | 5.2 | 0.00 | 0.00 | 0.00 | 62 | 1015.3 |
| 20260504043055 | 52 | 312 | 0.9 | 0.9 | 0.00 | 0.00 | 0.00 | 74 | 1015.7 |
| 20260504042552 | 52 | 311 | 0.9 | 0.9 | 0.00 | 0.00 | 0.00 | 78 | 1016.0 |
| 20260504042049 | 52 | 357 | 0.0 | 0.0 | 0.00 | 0.00 | 0.00 | 76 | 1016.0 |